EZY5GE LCPH-EGKK

Flight info

Callsign EZY5GE
Flight time N/A
Altitude 36000
Route GENOS DCT TOSKA DCT VAXOS DCT KPC DCT AKINA DCT AGISA DCT TALAS DCT ENFAR DCT ELTIB DCT GIMIX DCT ERKIR DCT KPT L856 RAVED Y112 HOC DCT LUL DCT RLP DCT ROTSI DCT KOTUN DCT NINAL DCT KESAX DCT KUNAV
Aircraft A320/M-SDE3FGHIRWY/LB1

Departure

Time 2026-04-16 05:34
Airport Paphos International Airport (LCPH)

Arrival

Time N/A
Airport London Gatwick Airport (EGKK)
Time Latitude Longitude Altitude Speed Heading
2026-04-16 05:14 34.71345 32.48767 46 ft 0 kts 154°
2026-04-16 05:21 34.71350 32.48764 46 ft 2 kts 154°
2026-04-16 05:22 34.71369 32.48754 44 ft 3 kts 158°
2026-04-16 05:22 34.71388 32.48745 44 ft 3 kts 163°
2026-04-16 05:22 34.71407 32.48740 45 ft 3 kts 176°
2026-04-16 05:22 34.71426 32.48741 44 ft 3 kts 207°
2026-04-16 05:23 34.71436 32.48749 41 ft 1 kts 245°
2026-04-16 05:23 34.71436 32.48750 42 ft 0 kts 245°
2026-04-16 05:25 34.71433 32.48742 44 ft 5 kts 246°
2026-04-16 05:25 34.71416 32.48696 45 ft 7 kts 245°
2026-04-16 05:25 34.71389 32.48625 46 ft 9 kts 245°
2026-04-16 05:25 34.71364 32.48560 46 ft 8 kts 245°
2026-04-16 05:26 34.71345 32.48492 46 ft 9 kts 268°
2026-04-16 05:26 34.71364 32.48419 46 ft 10 kts 290°
2026-04-16 05:26 34.71386 32.48346 45 ft 8 kts 290°
2026-04-16 05:26 34.71404 32.48289 46 ft 7 kts 291°
2026-04-16 05:27 34.71440 32.48261 46 ft 7 kts
2026-04-16 05:27 34.71500 32.48284 46 ft 9 kts 20°
2026-04-16 05:27 34.71557 32.48310 46 ft 9 kts 20°
2026-04-16 05:27 34.71612 32.48335 45 ft 8 kts 20°
2026-04-16 05:28 34.71677 32.48363 45 ft 12 kts 20°
2026-04-16 05:28 34.71757 32.48399 46 ft 12 kts 20°
2026-04-16 05:28 34.71837 32.48435 46 ft 13 kts 21°
2026-04-16 05:28 34.71924 32.48475 45 ft 13 kts 20°
2026-04-16 05:29 34.71991 32.48477 45 ft 9 kts 325°
2026-04-16 05:29 34.72026 32.48383 45 ft 15 kts 290°
2026-04-16 05:29 34.72061 32.48270 43 ft 14 kts 290°
2026-04-16 05:29 34.72093 32.48166 45 ft 13 kts 291°
2026-04-16 05:30 34.72123 32.48068 44 ft 12 kts 290°
2026-04-16 05:30 34.72151 32.47979 43 ft 11 kts 290°
2026-04-16 05:30 34.72183 32.47873 45 ft 15 kts 290°
2026-04-16 05:30 34.72219 32.47758 46 ft 15 kts 290°
2026-04-16 05:31 34.72254 32.47645 45 ft 14 kts 290°
2026-04-16 05:31 34.72286 32.47539 45 ft 13 kts 290°
2026-04-16 05:31 34.72316 32.47442 45 ft 13 kts 290°
2026-04-16 05:31 34.72350 32.47332 45 ft 14 kts 290°
2026-04-16 05:32 34.72382 32.47228 45 ft 12 kts 289°
2026-04-16 05:32 34.72349 32.47156 45 ft 10 kts 201°
2026-04-16 05:32 34.72287 32.47129 44 ft 10 kts 199°
2026-04-16 05:32 34.72225 32.47147 43 ft 9 kts 128°
2026-04-16 05:33 34.72214 32.47181 42 ft 0 kts 111°
2026-04-16 05:33 34.72209 32.47199 43 ft 11 kts 110°
2026-04-16 05:33 34.72113 32.47511 46 ft 75 kts 110°
2026-04-16 05:34 34.71858 32.48347 43 ft 134 kts 110°
2026-04-16 05:34 34.71476 32.49582 121 ft 171 kts 111°
2026-04-16 05:34 34.71039 32.50962 654 ft 179 kts 111°
2026-04-16 05:34 34.70608 32.52366 1370 ft 179 kts 107°
2026-04-16 05:35 34.70172 32.53830 1708 ft 197 kts 107°
2026-04-16 05:35 34.69577 32.55435 1925 ft 222 kts 127°
2026-04-16 05:35 34.68213 32.56456 2273 ft 245 kts 168°
2026-04-16 05:35 34.66516 32.56173 2957 ft 254 kts 206°
2026-04-16 05:36 34.65247 32.54680 3699 ft 260 kts 240°
2026-04-16 05:36 34.64634 32.52601 4418 ft 265 kts 261°
2026-04-16 05:36 34.64385 32.50379 5182 ft 265 kts 262°
2026-04-16 05:36 34.64161 32.48154 5955 ft 266 kts 263°
2026-04-16 05:37 34.63944 32.45909 6683 ft 269 kts 264°
2026-04-16 05:37 34.63730 32.43648 7403 ft 271 kts 264°
2026-04-16 05:37 34.63513 32.41365 8141 ft 273 kts 264°
2026-04-16 05:37 34.63341 32.39068 8879 ft 274 kts 272°
2026-04-16 05:38 34.63536 32.36717 9312 ft 289 kts 280°
2026-04-16 05:38 34.63838 32.34300 9866 ft 297 kts 281°
2026-04-16 05:38 34.64163 32.31764 10189 ft 315 kts 281°
2026-04-16 05:38 34.64519 32.29002 10339 ft 338 kts 280°
2026-04-16 05:39 34.64884 32.26130 10781 ft 348 kts 280°
2026-04-16 05:39 34.65244 32.23246 11402 ft 352 kts 279°
2026-04-16 05:39 34.65555 32.20286 12079 ft 354 kts 277°
2026-04-16 05:39 34.65809 32.17306 12759 ft 356 kts 276°
2026-04-16 05:40 34.66033 32.14307 13430 ft 358 kts 276°
2026-04-16 05:40 34.66250 32.11285 14043 ft 360 kts 276°
2026-04-16 05:40 34.66473 32.08246 14613 ft 363 kts 276°
2026-04-16 05:40 34.66706 32.05183 15153 ft 366 kts 276°
2026-04-16 05:41 34.66948 32.02089 15702 ft 369 kts 276°
2026-04-16 05:41 34.67195 31.98969 16238 ft 372 kts 276°
2026-04-16 05:41 34.67443 31.95824 16795 ft 375 kts 276°
2026-04-16 05:41 34.67693 31.92660 17327 ft 378 kts 276°
2026-04-16 05:42 34.67864 31.90553 17691 ft 379 kts 277°